リニア-ニート彗星

193P/LINEAR-NEAT (2014)

English version
Home page
Updated on November 13, 2016

---------------------------------------------------------------------

・ プロフィール

・ 写真集

・ 軌道要素

Epoch 2014 Dec. 9.0 TT = JDT 2457000.5
T 2014 Nov. 24.69850 TT                                 MPCW
q   2.1662206            (2000.0)            P               Q
n   0.14571850     Peri.    8.44820     +0.95845398     +0.27443196
a   3.5765111      Node   335.19429     -0.27134995     +0.79309169
e   0.3943202      Incl.   10.68699     -0.08794979     +0.54377631
P   6.76
From 330 observations 2001 Aug. 17-2014 Dec. 1, mean residual 0".7.
     Nongravitational parameters A1 = +1.62, A2 = -0.1622.

・ 光度変化

        m1 = 8.5 + 5 logΔ + 20.0 log r(t - 80)

---------------------------------------------------------------------

軌道要素はM.P.E.C. 2015-A10に掲載されたものです。
光度グラフはComet for Windowsで作成したものです。

---------------------------------------------------------------------

Copyright(C) Seiichi Yoshida (comet@aerith.net). All rights reserved.